Hourly Weather Changakul

Today, 16 June, Wednesday

Time Temperature Precipitation Wind Pressure Humidity
00:00 +20°C° 0 mm 1 mps 744 mmHg 89%
01:00 +19°C° 0 mm 1 mps 744 mmHg 89%
02:00 +19°C° 0 mm 1 mps 744 mmHg 91%
03:00 +19°C° 0 mm 1 mps 744 mmHg 92%
04:00 +18°C° 0 mm 1 mps 744 mmHg 94%
05:00 +19°C° 0 mm 2 mps 743 mmHg 89%
06:00 +21°C° 0 mm 2 mps 743 mmHg 84%
07:00 +22°C° 0 mm 3 mps 743 mmHg 79%
08:00 +24°C° 0 mm 3 mps 743 mmHg 76%
09:00 +25°C° 0 mm 3 mps 743 mmHg 72%
10:00 +26°C° 0 mm 3 mps 742 mmHg 68%
11:00 +27°C° 0 mm 4 mps 742 mmHg 61%
12:00 +29°C° 0 mm 4 mps 742 mmHg 55%
13:00 +30°C° 0 mm 5 mps 741 mmHg 48%
14:00 +30°C° 0 mm 4 mps 741 mmHg 50%
15:00 +30°C° 0 mm 4 mps 740 mmHg 51%
16:00 +30°C° 0 mm 4 mps 740 mmHg 53%
17:00 +29°C° 0.1 mm 4 mps 740 mmHg 58%
18:00 +28°C° 0.1 mm 5 mps 739 mmHg 63%
19:00 +26°C° 0.1 mm 5 mps 739 mmHg 69%
20:00 +25°C° 0.1 mm 4 mps 738 mmHg 76%
21:00 +22°C° 0.1 mm 3 mps 738 mmHg 83%
22:00 +20°C° 0.1 mm 3 mps 738 mmHg 90%
23:00 +19°C° 0.9 mm 3 mps 738 mmHg 92%

Tomorrow, 17 June, Thursday

Time Temperature Precipitation Wind Pressure Humidity
00:00 +18°C° 0.9 mm 3 mps 738 mmHg 94%
01:00 +18°C° 0.9 mm 3 mps 737 mmHg 97%
02:00 +17°C° 0.3 mm 3 mps 737 mmHg 97%
03:00 +17°C° 0.3 mm 2 mps 737 mmHg 97%
04:00 +17°C° 0.3 mm 2 mps 737 mmHg 98%
05:00 +17°C° 0 mm 3 mps 738 mmHg 96%
06:00 +17°C° 0 mm 4 mps 738 mmHg 94%
07:00 +17°C° 0 mm 5 mps 739 mmHg 92%
08:00 +17°C° 0 mm 5 mps 739 mmHg 84%
09:00 +17°C° 0 mm 5 mps 740 mmHg 76%
10:00 +19°C° 0 mm 5 mps 740 mmHg 69%
11:00 +20°C° 0 mm 6 mps 741 mmHg 61%
12:00 +21°C° 0 mm 6 mps 741 mmHg 53%
13:00 +22°C° 0 mm 6 mps 741 mmHg 45%
14:00 +22°C° 0 mm 6 mps 741 mmHg 45%
15:00 +22°C° 0 mm 5 mps 742 mmHg 45%
16:00 +22°C° 0 mm 5 mps 742 mmHg 44%
17:00 +21°C° 0 mm 5 mps 742 mmHg 47%
18:00 +20°C° 0 mm 5 mps 742 mmHg 50%
19:00 +19°C° 0 mm 4 mps 743 mmHg 53%
20:00 +17°C° 0 mm 4 mps 743 mmHg 58%
21:00 +15°C° 0 mm 4 mps 744 mmHg 63%
22:00 +14°C° 0 mm 4 mps 744 mmHg 67%
23:00 +13°C° 0 mm 4 mps 744 mmHg 73%

Day after tomorrow, 18 June, Friday

Time Temperature Precipitation Wind Pressure Humidity
00:00 +12°C° 0 mm 4 mps 745 mmHg 78%
01:00 +11°C° 0 mm 3 mps 745 mmHg 83%
02:00 +10°C° 0 mm 4 mps 745 mmHg 86%
03:00 +10°C° 0 mm 4 mps 746 mmHg 88%
04:00 +8°C° 0 mm 4 mps 746 mmHg 91%
05:00 +10°C° 0 mm 4 mps 747 mmHg 83%
06:00 +12°C° 0 mm 4 mps 747 mmHg 75%
07:00 +13°C° 0 mm 4 mps 748 mmHg 67%
08:00 +14°C° 0 mm 5 mps 748 mmHg 59%
09:00 +15°C° 0 mm 5 mps 749 mmHg 50%
10:00 +17°C° 0 mm 6 mps 749 mmHg 41%
11:00 +17°C° 0 mm 6 mps 749 mmHg 39%
12:00 +19°C° 0 mm 5 mps 749 mmHg 38%
13:00 +19°C° 0 mm 5 mps 749 mmHg 36%
14:00 +20°C° 0 mm 5 mps 750 mmHg 36%
15:00 +20°C° 0 mm 5 mps 750 mmHg 37%
16:00 +20°C° 0 mm 4 mps 750 mmHg 37%
17:00 +20°C° 0 mm 3 mps 750 mmHg 43%
18:00 +19°C° 0 mm 2 mps 750 mmHg 50%
19:00 +20°C° 0 mm 1 mps 750 mmHg 56%
20:00 +18°C° 0 mm 1 mps 750 mmHg 61%
21:00 +15°C° 0 mm 2 mps 750 mmHg 67%
22:00 +13°C° 0 mm 2 mps 750 mmHg 72%
23:00 +13°C° 0 mm 2 mps 750 mmHg 73%

19 June, Saturday

Time Temperature Precipitation Wind Pressure Humidity
00:00 +12°C° 0 mm 2 mps 750 mmHg 74%
01:00 +12°C° 0 mm 2 mps 750 mmHg 75%
02:00 +12°C° 0 mm 2 mps 750 mmHg 75%
03:00 +12°C° 0 mm 2 mps 750 mmHg 75%
04:00 +12°C° 0 mm 2 mps 750 mmHg 75%
05:00 +12°C° 0 mm 3 mps 750 mmHg 72%
06:00 +14°C° 0 mm 3 mps 750 mmHg 69%
07:00 +17°C° 0 mm 4 mps 750 mmHg 66%
08:00 +18°C° 0 mm 4 mps 750 mmHg 60%
09:00 +20°C° 0 mm 5 mps 750 mmHg 55%
10:00 +21°C° 0 mm 5 mps 749 mmHg 50%
11:00 +23°C° 0 mm 5 mps 749 mmHg 49%
12:00 +24°C° 0 mm 6 mps 749 mmHg 49%
13:00 +26°C° 0 mm 6 mps 748 mmHg 49%
14:00 +26°C° 0 mm 6 mps 748 mmHg 50%
15:00 +26°C° 0 mm 6 mps 747 mmHg 51%
16:00 +27°C° 0 mm 5 mps 747 mmHg 52%
17:00 +26°C° 0 mm 5 mps 747 mmHg 56%
18:00 +26°C° 0 mm 4 mps 746 mmHg 60%
19:00 +25°C° 0 mm 4 mps 746 mmHg 63%
20:00 +22°C° 0 mm 4 mps 746 mmHg 70%
21:00 +21°C° 0 mm 3 mps 746 mmHg 76%
22:00 +19°C° 0 mm 3 mps 746 mmHg 82%
23:00 +19°C° 0 mm 3 mps 746 mmHg 83%

20 June, Sunday

Time Temperature Precipitation Wind Pressure Humidity
00:00 +19°C° 0 mm 3 mps 746 mmHg 84%
01:00 +19°C° 0 mm 4 mps 746 mmHg 85%
02:00 +18°C° 0 mm 3 mps 746 mmHg 86%
03:00 +18°C° 0 mm 3 mps 746 mmHg 87%
04:00 +17°C° 0 mm 3 mps 746 mmHg 89%
05:00 +19°C° 0 mm 3 mps 746 mmHg 82%
06:00 +20°C° 0 mm 3 mps 747 mmHg 75%
07:00 +22°C° 0 mm 3 mps 747 mmHg 69%
08:00 +23°C° 0 mm 4 mps 747 mmHg 64%
09:00 +26°C° 0 mm 4 mps 747 mmHg 59%
10:00 +28°C° 0 mm 5 mps 747 mmHg 53%
11:00 +28°C° 0 mm 5 mps 747 mmHg 51%
12:00 +29°C° 0 mm 6 mps 747 mmHg 50%
13:00 +30°C° 0 mm 6 mps 747 mmHg 48%
14:00 +29°C° 0 mm 6 mps 747 mmHg 48%
15:00 +29°C° 0 mm 5 mps 747 mmHg 49%
16:00 +29°C° 0 mm 5 mps 747 mmHg 49%
17:00 +28°C° 0 mm 4 mps 748 mmHg 53%
18:00 +27°C° 0 mm 4 mps 748 mmHg 58%
19:00 +26°C° 0 mm 3 mps 748 mmHg 62%
20:00 +24°C° 0 mm 3 mps 748 mmHg 66%
21:00 +21°C° 0 mm 2 mps 749 mmHg 71%
22:00 +19°C° 0 mm 2 mps 749 mmHg 75%
23:00 +18°C° 0 mm 2 mps 749 mmHg 72%

21 June, Monday

Time Temperature Precipitation Wind Pressure Humidity
00:00 +18°C° 0 mm 1 mps 749 mmHg 70%
01:00 +16°C° 0 mm 1 mps 749 mmHg 67%
02:00 +15°C° 0 mm 1 mps 749 mmHg 65%
03:00 +15°C° 0 mm 1 mps 750 mmHg 64%
04:00 +13°C° 0 mm 0 mps 750 mmHg 62%
05:00 +16°C° 0 mm 1 mps 750 mmHg 60%
06:00 +18°C° 0 mm 1 mps 750 mmHg 57%
07:00 +20°C° 0 mm 1 mps 750 mmHg 55%
08:00 +21°C° 0 mm 1 mps 750 mmHg 52%
09:00 +23°C° 0 mm 2 mps 750 mmHg 50%
10:00 +25°C° 0 mm 2 mps 750 mmHg 47%
11:00 +26°C° 0 mm 2 mps 749 mmHg 48%
12:00 +27°C° 0 mm 3 mps 749 mmHg 48%
13:00 +28°C° 0 mm 3 mps 749 mmHg 49%
14:00 +29°C° 0 mm 3 mps 748 mmHg 49%
15:00 +29°C° 0 mm 4 mps 748 mmHg 49%
16:00 +30°C° 0 mm 4 mps 748 mmHg 49%
17:00 +29°C° 0 mm 4 mps 747 mmHg 54%
18:00 +28°C° 0 mm 4 mps 747 mmHg 59%
19:00 +27°C° 0 mm 3 mps 747 mmHg 64%
20:00 +26°C° 0.1 mm 3 mps 747 mmHg 69%
21:00 +25°C° 0.1 mm 3 mps 747 mmHg 73%
22:00 +22°C° 0.1 mm 3 mps 746 mmHg 78%
23:00 +21°C° 0.1 mm 3 mps 746 mmHg 82%
Show more

We Need Your Consent

Meteoprog and our Service Providers may store and access personal data such as cookies, device identifiers or other similar technologies on your device and process such data to personalise content and ads, as well as provide social media features and to analyse the traffic.

  • Store and/or access information on your device

    Cookies, device identifiers or other information can be stored or accessed on your device for the purposes indicated above.

  • Personalised ads and content, ad and content measurement, audience insights, and products development

    Ads and content can be personalised based on a profile. More data can be added to better personalise ads and content. Ad and content performance can be measured. Insights about the audience who saw the ads and content can be derived. Such data can be used to develop or improve user’s experience, systems and software.

By clicking ‘I Agree’ you will allow the use of indicated cookies, device identifiers, web beacons or other similar technologies. Your settings can be changed in the browser on your device.

For certain purposes, legitimate interests may be relied on, rather than consent. You can read more about this in our Privacy and Cookie Policy.